Presure
290 233 224 233 242 305 294 275 249 251 231 233 126 127 214 214 196 203 199 214 200 197 200 224 205 206 223 210 222 211 200 202 202 207 226 241 235 283 237 267 259 231 233 258 195 191 193
273 236 224 227 235 242 307 280 264 249 223 236 228 219 195 212 207 210 208 217 209 209 211 199 199 209 203 197 198 216 201 195 200 219 238 235 274 274 274 266 271 247 231 232 140 212 209
267 255 229 224 220 227 237 297 271 263 229 230 236 225 211 213 213 217 205 200 219 223 212 189 212 207 166 217 168 225 202 196 179 216 161 229 271 259 258 264 257 266 252 219 226 247 98
280 245 249 224 222 208 217 229 295 280 264 237 236 232 230 224 222 219 217 216 224 213 202 205 206 210 199 205 164 221 206 208 199 218 213 244 270 255 250 246 249 247 261 270 201 224 246
262 263 246 240 222 220 207 212 216 232 278 282 254 241 229 222 214 149 182 225 222 220 222 212 214 189 186 204 218 223 208 196 208 212 219 257 262 251 248 241 240 243 246 255 261 210 233
266 268 243 242 239 217 219 212 205 213 215 162 274 265 256 240 235 230 217 212 212 214 205 212 219 201 210 200 219 217 217 202 209 208 249 245 242 236 230 237 241 246 247 248 253 259 216
307 255 263 243 241 236 224 218 224 216 171 206 217 213 293 242 242 238 228 228 223 219 212 219 206 214 216 209 215 220 194 204 205 217 248 248 236 227 235 237 240 247 249 255 252 259 265
280 262 239 262 250 213 208 229 228 226 221 203 205 227 210 222 220 280 244 240 230 226 223 216 217 200 220 206 227 199 204 203 210 222 253 241 229 237 245 238 240 246 249 254 253 263 218
237 231 264 240 227 220 206 212 232 236 212 206 220 202 207 210 214 223 227 257 278 243 233 219 226 222 220 216 220 207 204 210 219 245 251 179 230 235 234 236 236 239 246 243 256 256 266
251 247 250 229 228 223 233 238 212 211 228 223 205 227 200 213 199 225 234 251 269 277 259 226 228 220 217 225 204 205 211 224 240 259 241 232 227 227 232 242 244 247 245 246 255 262 269
258 232 227 237 233 238 240 238 229 221 225 226 199 237 220 202 205 210 229 253 274 269 277 225 233 215 215 215 204 209 225 237 258 239 229 232 162 247 258 254 262 258 263 273 290 286 130
236 241 254 264 263 255 248 246 249 239 237 238 232 219 235 200 227 232 238 258 277 264 260 263 225 219 196 208 207 226 239 256 235 235 240 259 273 206 261 341 343 176 331 327 313 305 303
400 510 533 538 556 358 452 294 261 257 248 241 242 242 239 244 233 178 258 264 180 265 264 227 226 215 210 213 232 250 259 235 243 268 352 364 362 354 351 349 96 344 333 324 311 314 330
488 578 496 504 505 512 391 495 406 279 267 254 243 248 255 261 239 249 268 282 274 265 231 230 208 211 224 237 251 240 253 392 395 375 360 351 347 344 347 356 368 369 324 314 306 265 117
648 567 516 469 480 501 456 468 347 344 359 324 285 259 274 270 249 274 269 274 267 230 224 209 206 225 236 258 221 311 386 372 358 183 124 387 390 131 384 357 358 369 354 319 263 254 245
624 558 519 460 511 501 531 361 346 339 345 333 306 289 294 274 273 275 271 271 234 224 213 204 224 235 253 231 377 387 385 375 400 377 347 298 236 342 346 363 398 402 336 259 251 247 171
602 575 448 486 461 465 408 361 345 333 338 335 338 305 296 285 282 270 274 235 227 213 211 221 235 241 222 375 396 427 393 365 373 274 353 335 329 326 347 366 389 334 257 253 242 250 249
626 441 454 459 440 375 348 335 332 341 323 367 286 319 298 285 270 275 241 227 216 212 218 232 235 219 363 414 344 351 343 340 341 355 337 291 316 302 283 269 264 252 252 88 242 238 211
600 523 440 453 365 350 341 326 323 342 343 156 267 332 303 280 278 238 226 217 210 209 229 231 208 236 303 281 268 288 288 268 256 260 220 253 253 253 253 248 249 133 241 205 231 245 215
428 425 445 416 349 334 344 337 327 307 288 283 302 318 287 286 238 231 222 212 204 222 233 204 202 276 271 270 190 256 261 262 239 244 253 193 244 237 239 243 246 172 245 184 209 208 214
604 551 447 359 352 331 321 316 288 288 292 297 309 296 288 243 235 223 184 216 216 230 219 199 225 247 250 261 267 262 250 252 241 220 233 96 190 99 240 244 241 226 134 109 231 228 273
439 388 369 357 342 340 330 333 301 279 311 301 329 288 250 169 226 217 199 204 226 233 212 203 223 246 252 240 238 251 256 253 239 189 235 183 176 205 87 149 244 245 184 176 168 257 261
450 380 356 348 338 329 316 312 204 315 317 308 286 283 239 213 220 217 211 210 237 236 205 201 216 227 241 224 259 262 255 245 252 252 182 144 106 197 238 231 244 243 188 236 248 245 190
465 421 349 330 313 330 305 296 293 311 312 285 292 245 223 227 222 215 204 220 235 218 202 209 216 224 226 221 209 272 236 272 244 255 135 243 197 189 228 201 210 245 217 98 272 204 138
488 411 351 326 328 311 300 287 307 222 284 289 247 238 224 220 217 210 209 236 232 243 204 208 209 215 215 221 234 229 172 253 269 217 245 237 241 221 247 256 197 219 257 249 221 192 178
582 407 355 340 312 320 299 297 317 307 292 253 245 231 222 191 216 219 220 236 228 216 211 208 222 206 207 204 209 206 224 229 198 196 253 199 239 233 203 229 218 194 243 239 198 188 179
401 388 362 323 299 331 319 308 314 305 290 251 231 227 217 217 218 218 208 233 231 220 216 207 211 201 207 207 203 200 201 203 198 195 203 211 219 227 214 216 233 250 247 207 201 193 196
402 408 346 339 306 296 318 313 324 292 298 249 234 224 213 218 216 218 233 232 227 218 226 207 210 204 209 205 214 210 202 206 198 194 200 204 226 236 247 254 253 246 208 204 202 195 191
421 375 358 341 323 313 298 318 129 190 250 232 230 218 222 217 224 213 240 222 233 233 218 228 207 208 201 206 220 226 210 246 213 206 200 200 193 241 242 260 278 230 196 209 199 201 196
Wind_Speed
42 50 51 47 35 37 52 59 65 67 67 74 38 39 76 75 69 72 63 70 64 62 59 57 55 58 56 55 58 52 59 61 56 55 58 58 62 56 59 56 63 72 72 69 73 74 73
45 47 48 43 36 28 52 61 62 65 59 71 77 74 64 73 76 77 76 76 67 66 63 59 58 60 58 58 61 53 58 64 61 58 56 59 54 54 50 54 53 65 75 71 47 78 79
46 45 48 44 42 33 28 58 61 68 59 66 74 75 70 76 78 77 74 67 75 65 65 61 63 60 56 61 55 59 57 64 57 61 58 61 54 54 52 48 54 44 73 75 74 75 51
43 45 47 46 43 47 36 32 56 67 66 67 73 76 74 75 76 74 72 71 72 66 67 67 62 60 66 67 57 62 59 61 61 62 65 59 56 54 54 55 55 56 50 51 81 80 79
45 49 48 49 46 47 49 42 39 38 52 67 66 75 70 70 67 46 56 72 69 64 63 64 61 64 64 70 64 61 60 62 62 64 66 49 51 51 51 51 52 55 57 57 58 85 82
47 48 48 52 52 48 48 50 49 46 44 43 54 65 77 79 78 79 71 70 69 68 66 65 59 69 66 70 66 63 63 64 63 66 61 52 48 47 50 54 53 63 65 65 59 63 84
49 46 51 50 52 53 52 50 51 50 47 51 46 48 64 64 70 76 71 79 73 72 69 71 63 68 66 71 66 63 63 64 66 69 63 57 52 51 60 62 61 63 65 64 63 66 74
46 47 46 50 52 49 53 53 56 55 53 56 54 51 53 51 49 60 73 77 75 73 74 74 72 67 69 68 65 64 63 64 68 73 67 59 50 66 70 69 66 68 68 62 63 65 58
43 43 52 50 50 56 59 57 55 59 56 57 53 57 56 54 53 53 55 59 67 80 71 63 72 68 71 65 61 69 64 67 72 76 70 37 62 72 71 72 69 68 65 65 61 68 69
57 59 62 53 55 57 58 60 62 61 57 59 53 59 56 58 56 54 54 55 62 60 68 62 63 67 68 67 62 64 67 71 77 73 72 64 73 76 78 76 77 73 74 74 68 72 64
66 64 65 70 69 71 68 66 65 66 63 61 60 61 58 60 57 56 54 55 59 57 52 53 58 62 66 66 63 68 72 80 79 75 74 70 47 85 85 78 86 75 82 77 74 73 29
71 76 82 86 87 85 85 81 79 72 72 68 65 65 59 61 55 53 56 54 57 52 51 51 55 59 59 65 64 71 80 81 76 77 77 83 87 39 43 66 69 34 67 64 68 72 65
70 56 47 42 36 78 60 93 91 82 80 72 73 72 62 66 58 40 56 52 35 52 49 44 53 53 59 62 69 80 79 74 79 89 63 57 53 58 62 66 23 69 67 63 68 68 44
59 30 40 37 34 34 60 47 60 93 89 84 75 77 74 69 58 55 51 48 43 45 36 45 47 53 57 66 75 70 79 40 23 26 32 40 43 51 51 49 50 61 70 65 53 42 27
24 21 26 29 29 29 34 39 60 62 66 79 86 76 74 66 55 51 44 40 41 31 38 41 46 49 62 71 53 73 36 25 24 23 19 29 15 9 24 39 56 62 75 60 67 73 69
20 15 13 19 19 24 27 47 58 60 57 66 73 71 72 61 51 44 38 40 30 31 34 38 43 53 62 52 46 45 28 26 15 19 28 21 6 17 30 35 35 62 64 78 75 78 60
26 4 17 15 18 29 52 50 50 56 54 52 54 66 63 56 45 36 36 31 28 30 32 33 43 48 42 38 32 18 11 20 20 26 27 30 32 25 19 37 37 70 81 81 75 63 74
17 20 10 18 33 53 53 54 53 46 46 27 51 53 53 46 36 36 35 31 28 28 25 33 34 31 18 16 16 26 34 41 39 37 47 65 59 66 78 84 83 84 72 12 70 73 55
16 8 12 26 57 54 52 46 40 32 33 24 38 47 49 42 37 41 34 30 29 24 24 23 10 24 45 48 56 73 74 76 69 67 54 70 67 71 73 74 71 33 79 32 67 45 64
17 9 17 46 52 47 48 44 37 32 42 45 42 49 45 41 45 39 34 30 28 19 23 12 4 11 41 52 13 43 69 73 52 66 63 38 67 61 63 67 67 44 52 48 48 37 60
28 12 33 51 56 45 49 50 48 31 43 46 46 48 44 48 47 41 27 28 20 18 15 11 7 4 6 34 52 65 47 69 54 58 54 28 42 18 67 62 67 63 29 17 51 64 53
7 34 41 53 53 54 51 50 53 49 44 44 48 47 52 29 48 39 31 31 20 22 19 13 3 6 16 2 32 46 63 70 49 23 57 19 30 50 19 23 65 65 38 48 24 68 66
15 42 44 42 41 47 47 46 24 46 51 52 52 55 56 45 46 40 33 26 21 25 22 17 10 4 7 16 25 45 49 53 63 68 25 26 28 37 63 55 71 70 34 58 54 58 46
13 41 49 36 38 49 49 49 51 52 49 49 55 62 53 52 45 37 33 24 27 28 25 19 14 12 7 16 18 41 8 53 45 64 26 32 22 29 22 14 15 64 48 29 52 44 19
12 48 54 40 47 47 56 47 52 28 55 55 61 60 55 48 42 38 33 26 32 21 29 24 19 18 14 12 14 20 17 36 54 43 51 36 28 17 43 57 14 16 56 48 47 40 35
20 52 57 51 51 52 57 55 55 57 58 60 64 61 52 31 41 37 32 31 34 35 33 29 24 23 21 17 17 16 14 24 33 29 46 29 19 42 21 27 23 36 43 45 41 35 34
18 52 63 53 48 58 64 60 56 60 64 68 64 60 48 44 40 38 29 36 35 38 37 32 29 26 25 23 20 21 20 17 21 22 16 17 23 31 34 36 42 46 47 44 43 41 43
25 61 51 59 55 48 64 59 57 64 64 71 66 58 45 44 42 38 34 35 38 32 37 35 31 29 27 27 26 25 23 20 23 27 23 21 23 29 32 35 39 43 43 43 46 44 42
33 59 54 57 65 62 46 57 19 26 69 65 65 53 52 47 44 39 36 40 38 35 39 36 34 32 30 29 24 23 24 23 25 25 25 27 26 26 29 32 32 46 32 41 38 43 43
Wind_Direction
283 270 279 281 283 260 239 231 243 242 245 242 260 265 252 255 255 258 256 266 261 259 260 269 264 266 275 267 264 260 265 267 264 267 273 271 266 260 250 247 244 240 236 232 240 239 232
279 266 272 275 274 280 242 240 242 243 244 244 246 251 254 254 256 260 262 265 263 265 265 259 262 268 264 263 262 261 261 266 268 273 278 273 266 256 250 247 247 241 237 233 232 238 238
275 267 264 267 267 266 268 243 249 243 247 248 247 249 250 253 255 258 258 254 268 264 262 257 266 262 261 268 263 272 259 262 261 276 249 278 259 256 252 251 249 249 237 234 233 233 235
268 271 261 261 259 266 256 257 246 246 248 246 247 250 251 251 255 257 258 259 264 256 258 260 260 263 264 266 263 270 267 268 268 277 275 274 255 251 252 247 245 243 245 245 232 232 231
276 265 266 257 258 258 262 256 252 252 251 248 245 246 251 251 251 262 263 259 260 259 262 258 260 262 266 265 271 274 268 268 274 277 284 274 256 253 249 247 245 244 242 242 240 231 231
278 265 269 263 256 256 257 257 257 254 251 260 252 251 249 251 252 255 252 253 255 260 256 256 262 262 265 267 273 274 274 273 278 280 285 271 263 257 257 256 253 249 242 237 237 241 228
270 276 267 263 259 255 255 256 254 251 264 255 252 251 256 252 253 256 256 256 257 256 259 264 257 263 262 265 270 272 273 276 280 284 282 269 269 267 258 252 247 248 246 245 241 242 234
283 275 271 264 258 262 263 254 256 254 250 253 253 253 254 256 256 260 257 258 256 255 257 259 261 262 261 266 274 272 274 277 280 283 278 271 267 259 254 253 251 251 247 247 242 244 240
294 283 272 272 269 265 262 260 256 256 255 253 251 256 254 257 258 262 264 261 261 256 256 258 261 260 264 265 268 271 276 277 280 283 274 264 262 260 258 256 255 254 252 249 244 239 240
291 292 286 275 271 264 268 261 257 255 253 252 254 253 261 254 264 263 266 266 264 257 254 254 259 260 265 268 270 272 275 280 284 278 269 268 266 261 260 258 257 254 252 246 240 240 236
287 292 290 286 284 277 269 263 257 256 254 253 251 259 247 262 260 263 265 265 260 257 259 248 252 259 265 271 274 280 281 282 281 272 273 271 254 267 264 261 255 249 246 242 239 237 223
298 295 289 280 273 269 266 265 262 257 257 255 255 252 256 262 260 262 266 262 257 256 255 257 250 257 270 271 277 278 282 280 276 276 275 273 269 253 248 245 241 222 231 226 223 224 221
304 299 291 278 267 250 245 248 256 254 254 254 256 256 253 260 255 260 264 260 260 254 255 249 256 262 266 275 282 284 281 281 280 280 272 263 256 247 242 237 210 225 216 208 211 213 198
313 300 290 276 261 254 242 226 229 247 249 250 251 253 256 255 253 260 256 255 250 252 250 252 261 266 276 285 285 287 288 289 265 255 255 256 255 254 247 237 221 213 202 200 208 172 233
316 300 290 272 257 244 217 204 221 226 227 230 241 249 249 247 250 247 248 245 246 238 247 261 268 280 287 287 295 299 298 281 265 248 253 255 227 268 207 206 209 198 193 189 163 170 182
312 291 285 269 229 220 200 182 204 217 220 225 232 236 234 238 240 236 238 238 226 237 252 265 279 288 289 301 302 304 288 266 249 149 127 132 173 146 161 168 182 194 179 159 171 177 205
317 250 281 231 189 179 172 185 190 209 214 218 225 227 227 228 224 224 223 215 222 239 254 273 289 289 303 310 312 307 136 120 124 132 129 117 123 129 167 141 141 146 155 167 175 176 184
324 307 250 181 173 158 172 186 195 202 208 199 224 221 221 214 208 207 201 209 224 240 265 281 288 304 337 4 96 109 111 107 107 117 113 112 120 118 127 136 142 152 155 237 174 188 182
324 207 205 177 160 169 177 185 187 184 188 236 220 210 207 197 189 194 196 208 225 243 267 278 304 323 119 112 107 106 106 110 112 112 115 117 119 124 138 145 151 190 168 157 179 186 193
319 229 188 170 175 178 178 168 153 170 187 194 208 200 191 181 188 183 193 209 228 239 260 242 287 90 124 125 136 128 124 124 139 132 130 150 139 147 153 155 160 180 167 192 184 201 188
338 253 178 176 180 175 176 174 185 161 197 197 198 183 182 183 179 185 214 199 210 235 224 214 317 121 263 138 130 133 139 133 145 147 152 238 151 244 159 158 165 169 194 209 196 191 208
238 175 173 173 173 168 175 164 180 189 194 188 191 177 177 224 181 189 205 216 206 220 209 209 185 86 208 191 142 154 146 145 162 122 161 125 187 171 249 198 169 174 187 199 206 194 189
197 180 182 180 169 168 166 170 206 185 188 180 174 172 174 186 183 190 194 195 201 206 199 201 176 119 122 168 154 157 158 165 162 164 132 189 236 170 176 176 179 189 182 197 196 188 189
214 185 191 186 177 174 174 180 180 186 178 173 172 172 179 179 183 186 209 185 196 193 195 199 186 149 146 166 196 166 229 163 184 175 208 167 192 189 177 132 170 196 193 238 199 188 236
250 182 192 188 178 176 178 188 181 190 171 173 173 174 180 184 184 194 196 187 192 188 193 195 186 168 174 168 166 168 192 206 178 177 191 185 189 164 186 195 158 202 202 196 187 196 196
321 189 193 187 180 173 183 190 189 179 171 174 172 179 183 207 187 180 182 182 191 190 191 194 196 178 182 191 172 171 181 186 167 160 202 170 191 209 186 208 224 183 208 206 202 203 198
226 191 184 181 186 179 183 192 185 175 170 172 177 181 186 187 185 183 186 184 189 193 191 197 192 188 183 187 198 180 178 182 175 172 181 208 214 210 213 213 223 223 210 203 207 212 216
206 188 186 179 185 189 185 192 185 172 172 174 179 182 188 185 189 185 185 186 191 194 194 199 195 191 190 192 196 202 195 203 189 186 191 196 217 225 226 227 224 217 205 206 210 216 222
205 196 198 185 183 189 192 190 239 194 176 184 182 187 186 186 182 193 189 195 193 192 198 195 199 199 196 199 202 204 203 206 208 211 203 202 205 221 226 227 227 218 213 219 219 222 227